This is the latest recevied weather packets stored in our database for station/object CT1EDG-13. If no packets are shown the sender has not sent any weather packets the latest 10 day(s).
| Time | Temp. | Humidity | Pressure | Rain* | Wind** | Luminosity | Snow |
|---|---|---|---|---|---|---|---|
| 1788566033 | 25° C | 78% | 1008.5 hPa | 0 mm | - | - | - |
| 1788566031 | 25° C | 78% | 1008.5 hPa | 0 mm | - | - | - |
| 1788565433 | 25° C | 76% | 1008.6 hPa | 0 mm | - | - | - |
| 1788565431 | 25° C | 76% | 1008.6 hPa | 0 mm | - | - | - |
| 1788564833 | 26.11° C | 72% | 1008.8 hPa | 0 mm | - | - | - |
| 1788564831 | 26.11° C | 72% | 1008.8 hPa | 0 mm | - | - | - |
| 1788564232 | 26.11° C | 71% | 1008.8 hPa | 0 mm | - | - | - |
| 1788564231 | 26.11° C | 71% | 1008.8 hPa | 0 mm | - | - | - |
| 1788563632 | 26.11° C | 74% | 1008.7 hPa | 0 mm | - | - | - |
| 1788563631 | 26.11° C | 74% | 1008.7 hPa | 0 mm | - | - | - |
| 1788563033 | 26.11° C | 76% | 1008.6 hPa | 0 mm | - | - | - |
| 1788563031 | 26.11° C | 76% | 1008.6 hPa | 0 mm | - | - | - |
| 1788562431 | 26.11° C | 82% | 1008.6 hPa | 0 mm | - | - | - |
| 1788562429 | 26.11° C | 82% | 1008.6 hPa | 0 mm | - | - | - |
| 1788561831 | 25° C | 88% | 1008.7 hPa | 0 mm | - | - | - |
| 1788561829 | 25° C | 88% | 1008.7 hPa | 0 mm | - | - | - |
| 1788561230 | 24.44° C | 93% | 1008.4 hPa | 0 mm | - | - | - |
| 1788561229 | 24.44° C | 93% | 1008.4 hPa | 0 mm | - | - | - |
| 1788560631 | 25° C | 90% | 1008.7 hPa | 0 mm | - | - | - |
| 1788560629 | 25° C | 90% | 1008.7 hPa | 0 mm | - | - | - |
| 1788560029 | 25.56° C | 85% | 1008.7 hPa | 0 mm | - | - | - |
| 1788559428 | 25.56° C | 83% | 1008.8 hPa | 0 mm | - | - | - |
| 1788559427 | 25.56° C | 83% | 1008.8 hPa | 0 mm | - | - | - |
| 1788558828 | 25° C | 83% | 1008.8 hPa | 0 mm | - | - | - |
| 1788558827 | 25° C | 83% | 1008.8 hPa | 0 mm | - | - | - |
* Rain latest hour (hover to see other rain measurements)
** Current wind speed in m/s (hover to see current wind gust speed)